Theta_e
346 347 347 346 345 345 348 349 348 349 349 349 349 349 348 348 346 346 345 346 344 342 342 342 343 343 346 344 345 345 344 343 343 343 342 342 341 342 341 341 340 339 339 337 336 336 338 339 340 342 341 343 343 335 333 335 336 337 336 338 338 334
346 346 345 344 344 345 346 345 344 345 345 346 347 346 344 344 345 344 346 343 341 343 340 340 343 346 343 344 343 344 343 343 342 342 342 342 342 340 340 339 338 339 338 336 334 328 329 336 339 342 341 343 337 332 333 334 335 336 336 336 337 337
345 344 342 343 344 345 344 342 342 343 344 346 346 344 343 341 339 339 340 340 341 339 339 340 341 344 344 344 344 343 343 343 343 342 342 341 340 340 340 339 339 337 336 334 328 327 326 326 327 339 340 336 333 332 333 334 334 335 335 336 335 339
344 343 342 342 342 341 341 342 341 340 341 341 340 339 338 338 338 338 338 338 338 340 339 338 345 346 347 342 342 344 343 343 343 343 342 341 341 340 339 338 337 334 332 331 328 329 327 327 327 327 328 332 332 332 333 334 334 334 334 337 334 340
343 343 342 341 340 339 340 341 340 340 340 340 338 337 336 336 337 337 336 336 336 337 337 338 339 340 338 338 337 338 338 338 338 337 338 334 333 331 330 327 328 330 328 329 329 329 328 327 328 327 328 331 332 332 333 334 334 334 334 337 337 343
342 342 341 341 339 340 340 339 339 339 339 339 338 336 335 336 335 335 335 336 336 335 336 337 338 338 337 336 336 335 335 336 335 335 336 333 331 329 328 328 329 329 329 330 330 329 331 329 327 326 327 330 332 332 333 333 334 334 335 336 339 343
340 341 340 341 340 339 338 339 338 338 337 337 338 336 335 335 335 334 335 336 335 334 335 337 338 338 337 336 335 335 334 334 334 334 335 332 330 328 329 329 329 329 329 330 330 330 328 327 326 326 327 330 332 332 332 333 333 334 334 336 340 342
340 340 339 340 338 336 336 336 338 340 337 339 338 336 336 335 335 334 335 335 336 335 336 337 338 337 336 335 334 334 333 333 334 333 333 331 328 327 329 329 328 327 329 329 330 330 328 328 327 329 331 331 332 332 332 333 333 334 334 336 339 342
339 339 339 338 336 335 335 336 338 336 337 340 337 337 337 335 333 334 334 335 337 335 336 337 336 336 336 334 333 333 332 332 332 330 329 327 328 326 328 328 328 327 328 328 328 329 329 328 328 330 331 332 332 332 332 333 334 334 335 337 338 342
338 338 338 336 334 333 334 335 336 336 338 339 337 337 337 335 334 334 333 333 335 335 335 335 335 335 334 333 333 332 331 330 330 329 328 327 328 328 328 328 327 327 327 328 329 330 329 328 328 330 331 332 332 333 333 333 334 335 335 335 337 341
338 338 337 334 333 332 334 334 335 336 338 337 337 337 336 335 334 334 333 333 333 335 334 335 335 333 332 332 331 330 329 329 328 328 328 328 328 327 327 327 326 326 327 327 327 327 328 328 328 330 331 332 332 333 333 334 335 334 334 334 335 336
338 337 335 333 332 331 331 333 335 335 337 338 338 336 335 334 334 333 334 332 333 334 335 334 333 332 331 330 330 330 330 329 328 328 328 328 329 328 328 328 329 329 328 328 327 327 327 327 326 328 330 331 332 332 333 334 334 334 333 333 334 335
337 336 334 332 331 331 332 334 334 336 337 338 337 336 334 333 332 333 333 332 333 334 334 333 332 332 332 330 330 330 329 329 329 329 329 330 331 331 330 329 329 329 328 327 326 326 327 326 326 326 329 330 331 331 332 333 333 333 334 334 335 334
337 335 333 332 331 332 333 334 335 337 337 336 336 335 334 332 333 332 332 333 333 334 333 333 332 330 329 329 329 329 329 329 329 330 330 330 329 329 329 329 328 328 328 325 324 324 325 326 326 327 327 328 329 329 330 331 332 332 333 334 334 334
336 334 333 331 331 332 333 334 335 336 336 335 335 334 333 332 332 332 332 332 332 333 332 331 331 329 328 329 329 328 328 330 329 330 329 329 329 328 327 327 327 326 326 326 325 326 324 325 326 326 327 329 329 329 330 330 331 332 333 333 333 333
335 332 331 331 331 332 333 334 336 336 335 335 334 333 332 332 332 331 331 331 331 333 331 330 329 329 328 328 329 329 328 329 330 329 329 329 329 327 326 326 327 327 325 325 325 324 324 325 326 326 328 329 330 331 330 331 331 331 332 332 332 331
333 332 331 331 332 333 334 335 335 334 334 334 333 332 332 331 332 331 331 332 331 332 330 329 329 328 328 327 327 328 329 330 330 329 329 328 326 326 326 325 325 327 326 324 324 324 323 324 325 326 327 328 329 331 331 331 331 331 331 330 330 330
333 333 332 332 332 333 334 334 333 333 333 332 332 332 331 332 331 330 331 332 331 331 331 329 328 328 327 328 328 328 328 329 328 328 328 327 326 325 325 325 325 327 327 325 324 324 323 324 325 325 326 327 328 330 331 331 332 332 330 329 329 329
333 332 332 333 333 333 332 331 331 331 330 330 331 331 331 330 329 330 330 332 331 331 332 329 329 328 329 330 327 327 328 328 329 327 326 326 326 325 324 324 325 326 327 324 324 324 324 325 325 325 325 326 328 328 330 331 331 330 330 330 332 332
332 333 333 332 332 330 330 329 327 328 329 329 329 329 329 329 329 329 330 331 331 330 331 330 329 329 329 328 327 328 327 327 327 326 325 324 323 324 323 322 325 326 325 325 325 324 325 324 324 324 324 325 327 328 328 329 331 331 331 332 331 331
331 332 331 330 329 329 327 327 327 327 326 327 328 328 327 327 327 328 330 330 331 331 330 330 330 329 328 331 329 328 327 327 326 326 326 325 324 325 326 326 325 325 324 323 322 323 324 324 323 321 323 323 324 327 328 328 329 330 330 332 333 332
331 331 331 330 330 329 329 328 327 326 326 326 327 325 324 325 326 329 329 329 330 330 330 330 330 329 330 330 328 328 328 327 326 325 325 325 324 326 325 324 325 324 323 322 321 323 323 321 319 319 318 318 321 324 326 327 327 328 329 330 330 331
330 330 330 330 329 328 328 328 327 325 326 324 324 324 325 326 329 328 328 329 330 330 329 328 329 330 329 329 328 328 328 326 325 327 326 326 326 325 324 324 325 324 321 322 323 323 323 319 316 317 318 317 314 315 320 323 326 327 328 329 330 330
329 329 329 330 328 327 327 325 324 324 323 322 322 325 325 325 326 327 327 329 329 329 329 329 329 330 329 328 327 326 325 325 325 327 326 325 325 325 323 321 321 323 324 322 322 322 323 320 319 318 313 312 313 315 312 316 319 323 328 328 329 329
328 328 328 329 327 326 325 323 323 323 325 324 324 324 324 323 325 327 326 327 327 328 329 329 329 329 329 327 326 325 325 324 324 324 325 326 326 325 324 322 322 323 324 324 319 317 321 322 321 321 317 313 312 311 310 316 319 319 324 324 326 327
327 327 327 326 326 325 324 322 322 322 321 320 320 321 322 323 325 325 325 323 327 327 327 326 326 327 328 326 324 323 324 323 323 324 324 325 325 323 323 324 323 324 322 322 323 317 319 322 322 323 319 317 315 314 313 318 316 311 321 324 324 326
326 326 326 326 325 324 322 322 322 322 322 322 320 317 319 322 324 319 321 323 323 322 323 324 322 323 324 324 321 320 321 322 323 322 324 322 322 323 324 324 324 322 322 321 321 320 320 319 320 321 319 320 321 320 322 317 312 316 313 319 322 322
326 326 325 325 324 324 322 321 320 320 321 321 321 319 320 319 319 320 320 319 318 316 317 318 319 319 321 321 319 318 319 319 319 320 322 320 320 318 319 321 324 322 321 322 322 322 319 320 320 319 318 319 320 320 316 314 319 317 315 313 315 321
325 324 323 324 323 322 323 321 321 321 320 320 320 319 319 319 319 320 317 315 316 314 314 314 316 318 318 320 322 318 318 318 319 320 322 318 317 318 319 319 320 320 321 320 321 320 320 319 318 317 317 317 318 317 317 317 316 317 317 315 315 316
324 324 323 323 322 321 321 321 320 320 319 318 319 317 317 317 317 317 316 313 313 313 313 313 313 315 317 318 319 320 318 318 317 319 320 316 316 316 316 317 318 319 319 319 319 321 321 319 318 319 319 318 316 316 317 317 316 317 317 318 315 315
324 323 322 321 321 320 319 320 320 320 319 317 316 315 315 315 315 315 314 312 312 312 312 312 314 314 316 317 318 319 316 316 319 322 318 315 315 315 314 314 314 316 317 318 317 317 317 317 317 318 318 320 319 319 317 314 315 315 316 316 315 315
322 322 320 319 319 319 319 319 319 319 318 318 316 316 315 314 314 314 312 311 310 311 310 311 312 314 315 316 317 316 317 315 315 314 314 314 314 313 313 313 312 313 312 312 314 316 315 316 317 318 318 319 319 317 314 318 318 316 318 318 317 316
322 320 319 318 318 318 318 318 318 318 318 318 317 316 315 314 313 314 312 311 311 311 310 312 311 313 313 314 316 314 314 314 314 315 313 313 312 312 312 311 311 310 310 311 311 313 315 315 317 318 318 316 318 315 316 318 318 317 319 320 318 315
321 319 318 317 317 317 317 317 317 318 318 318 316 315 314 314 313 313 312 312 311 311 311 312 311 312 312 314 314 315 314 312 313 313 313 311 312 312 311 310 310 310 309 308 309 309 309 309 309 309 313 314 316 315 316 318 318 319 319 318 316 315
320 318 317 316 317 317 317 317 317 318 319 318 317 315 314 315 313 312 312 312 311 310 311 310 311 311 313 312 312 312 313 312 311 311 312 312 311 310 311 311 311 310 310 308 309 310 308 309 309 309 311 313 314 315 317 318 319 320 320 319 317 316
320 318 317 317 316 317 317 317 317 317 318 318 318 315 314 314 313 313 312 312 310 310 311 310 311 311 311 312 312 313 312 310 309 310 310 310 310 310 310 310 309 309 310 312 308 308 307 308 308 308 310 311 316 315 316 317 319 320 320 319 319 317
319 315 315 315 316 316 316 316 316 318 317 317 316 314 314 313 312 312 312 311 311 310 310 310 311 311 310 310 311 311 310 309 309 309 309 309 309 309 309 309 308 308 308 308 310 307 308 308 307 308 308 310 314 314 315 317 318 318 318 318 318 318
Wind_Speed
8 8 8 8 7 8 11 16 14 16 17 16 12 13 14 15 14 13 13 13 10 7 6 6 7 6 11 7 9 10 10 10 10 10 9 7 7 9 9 11 10 10 10 9 8 7 6 3 3 5 6 7 11 6 5 5 5 4 4 3 3 2
8 9 8 6 5 6 8 10 7 8 8 10 11 11 10 8 8 7 12 8 6 6 6 6 6 8 5 7 8 10 10 10 10 9 9 8 8 8 9 9 9 9 9 8 6 5 4 4 2 4 6 9 6 5 5 5 5 4 4 3 3 3
8 8 8 6 5 7 8 6 6 6 6 8 8 7 7 8 6 7 6 6 5 4 5 5 5 7 6 10 9 11 11 11 11 11 10 9 7 6 7 8 8 8 8 7 5 4 4 3 2 4 6 6 6 5 5 5 4 4 4 4 3 5
9 9 8 6 6 6 6 7 6 5 5 6 7 7 7 6 6 7 6 6 5 4 5 4 9 13 10 6 7 9 12 12 12 12 10 5 6 6 7 7 8 7 5 3 4 3 4 3 3 3 4 5 6 6 6 5 5 4 4 4 2 6
9 9 7 6 8 6 7 6 6 6 6 6 6 6 5 5 6 7 7 6 5 5 5 5 5 5 5 5 5 5 5 5 5 5 7 4 2 3 3 4 4 4 4 4 4 4 4 3 3 4 4 5 5 5 5 5 4 4 4 3 2 4
8 9 7 7 8 8 9 7 6 6 6 6 6 5 4 5 5 6 6 6 6 6 5 5 5 5 5 5 5 4 4 4 5 4 3 3 2 2 2 3 3 4 3 3 4 3 3 3 4 4 4 5 6 5 5 5 4 4 3 3 2 6
8 8 8 7 7 6 6 6 6 7 7 6 5 6 4 4 4 5 5 6 6 5 5 5 5 4 5 4 5 4 4 4 4 4 2 2 3 2 2 2 3 3 3 4 4 3 3 3 3 5 5 5 5 5 5 5 4 4 3 4 3 8
7 8 8 8 8 7 6 6 7 8 8 7 7 5 4 4 4 4 5 5 5 5 6 6 6 5 4 4 5 5 4 3 3 3 2 2 2 2 2 2 2 3 3 3 3 2 2 3 4 4 6 5 5 5 4 4 4 4 4 4 2 5
7 8 7 7 8 7 7 6 6 7 8 10 5 6 5 5 4 4 4 4 5 6 5 5 6 6 4 5 4 4 4 3 3 2 3 2 2 2 2 2 2 3 2 2 3 3 2 3 4 4 5 5 5 5 5 5 5 5 4 3 3 4
9 7 7 7 7 8 7 6 7 7 7 8 6 7 6 4 4 5 4 4 4 5 5 5 6 5 5 5 4 4 4 4 3 2 3 2 1 2 2 2 2 3 2 2 2 2 2 3 5 4 4 5 4 5 5 5 5 5 4 4 3 3
7 8 7 7 7 8 7 7 7 6 6 7 7 7 5 4 4 4 4 5 4 5 5 5 6 5 5 4 4 4 4 4 3 2 2 2 1 2 3 2 3 2 2 1 2 4 5 5 4 4 4 4 4 4 4 4 4 4 4 4 3 3
9 8 8 8 8 8 8 7 7 5 6 7 6 6 6 5 6 5 5 4 5 5 5 5 6 5 5 5 4 4 4 3 3 2 2 3 3 3 3 3 3 3 2 1 2 4 5 5 5 4 3 3 3 4 4 3 4 4 4 4 3 3
10 10 9 9 8 7 6 8 7 5 7 7 6 6 5 5 5 6 5 4 5 5 5 6 5 6 6 5 5 5 4 3 3 2 2 4 5 4 3 3 3 3 3 3 4 5 5 6 6 5 5 6 5 5 4 4 4 4 3 3 3 3
9 9 9 7 7 7 8 8 7 6 7 6 6 6 5 5 5 5 4 4 4 4 5 4 6 5 5 5 5 4 4 3 3 3 3 2 4 3 4 4 3 3 3 4 4 5 6 6 5 6 6 5 5 4 4 5 5 4 3 3 2 3
9 8 7 7 8 8 8 8 8 6 6 6 6 5 4 4 4 4 4 4 4 4 4 4 4 5 5 5 4 4 4 4 4 4 3 2 3 3 4 4 3 3 3 3 4 5 6 6 7 7 6 6 6 5 5 5 5 4 3 2 2 2
8 7 5 5 6 7 8 7 7 8 6 6 6 5 5 5 4 4 4 4 4 4 4 4 4 5 5 4 5 4 4 4 5 3 2 2 2 3 3 4 3 3 5 3 5 5 6 7 7 7 6 6 5 5 5 4 4 4 3 2 2 3
8 7 6 5 6 7 7 7 7 7 7 7 6 5 5 5 5 4 4 4 4 4 4 4 5 5 5 5 5 4 3 4 4 3 3 2 2 2 3 4 2 2 2 4 5 7 6 7 7 7 6 6 6 5 5 4 4 3 3 3 2 2
7 7 6 6 6 7 6 7 7 7 7 6 6 5 5 5 5 5 4 5 4 4 4 4 5 5 5 5 4 5 4 4 3 3 3 2 2 1 3 4 4 2 2 4 5 7 7 7 6 7 7 6 5 5 4 4 4 4 3 3 2 3
8 7 6 6 7 7 7 7 7 7 7 6 6 5 5 5 5 4 4 5 5 4 4 5 5 5 5 5 4 4 4 4 4 3 3 3 3 2 3 3 5 4 5 5 6 6 7 7 7 7 6 6 5 5 4 5 4 4 3 3 3 4
7 7 7 6 6 7 7 8 8 7 7 6 6 5 4 5 4 4 4 5 5 5 4 5 5 5 5 5 5 4 4 3 4 5 4 4 3 3 4 5 5 6 7 7 6 6 7 8 8 9 9 8 6 6 5 4 5 5 4 4 4 4
7 7 7 8 7 8 7 7 6 6 6 5 6 6 4 4 4 4 5 5 5 5 5 5 5 5 5 5 4 4 4 3 4 4 4 4 4 4 4 5 4 4 6 6 4 4 5 7 8 7 7 8 8 7 7 7 7 6 6 5 4 4
6 7 7 7 6 6 5 5 5 5 5 4 7 6 4 4 4 4 4 4 4 5 5 5 5 4 5 5 5 4 5 4 4 4 3 2 3 4 5 5 5 4 2 4 4 5 6 5 3 5 6 5 6 5 6 6 7 6 5 4 4 4
6 7 6 7 7 6 5 5 5 4 6 4 3 3 4 4 4 5 4 5 5 5 5 5 5 5 5 5 5 5 5 4 4 4 4 3 3 3 4 6 6 6 3 2 3 4 3 0 5 4 4 5 2 3 4 5 5 6 6 5 4 4
7 7 6 7 7 7 7 7 6 6 5 4 5 5 5 5 5 5 5 4 4 4 4 5 4 4 4 4 5 5 4 4 4 4 5 5 4 4 3 3 4 4 6 5 3 3 3 2 4 8 3 2 3 3 4 3 4 4 5 6 5 6
7 7 7 7 8 8 8 8 7 6 7 7 6 5 6 4 4 4 4 4 4 4 4 4 4 4 4 5 4 4 5 5 5 4 4 5 5 5 5 4 5 6 6 6 4 2 1 2 5 1 6 5 4 2 2 4 4 5 5 5 6 6
6 7 7 8 8 7 7 9 8 8 7 5 6 6 6 7 5 5 5 3 4 3 4 3 4 4 4 4 5 4 4 5 4 3 4 4 4 3 4 5 6 6 6 5 6 5 4 1 3 2 2 1 3 3 6 5 2 3 4 5 5 6
7 7 7 8 7 7 7 6 7 7 7 8 8 2 3 4 5 4 5 5 4 3 3 5 4 4 4 4 4 4 4 4 4 4 3 4 5 6 5 6 4 5 6 5 4 5 6 4 3 1 0 1 2 3 8 7 3 5 5 2 4 5
6 7 6 7 6 7 8 6 6 5 6 7 7 7 6 5 4 5 6 5 4 3 3 3 5 4 5 5 4 4 4 4 4 4 4 5 6 4 3 2 4 4 5 5 5 5 5 5 7 3 2 3 5 6 4 4 6 5 6 6 5 5
7 6 6 6 6 5 6 7 6 6 6 3 5 6 5 5 6 5 6 4 5 4 4 3 3 5 4 5 5 5 5 5 5 4 4 5 4 5 6 6 5 5 6 5 5 4 5 5 5 4 4 4 6 5 5 4 5 4 5 7 4 4
7 6 6 6 6 6 5 6 7 6 8 6 6 5 5 6 5 5 6 4 4 5 4 4 4 3 4 4 5 4 4 4 4 4 3 5 4 4 4 4 4 4 4 5 4 5 6 5 4 5 4 6 5 4 5 4 4 6 6 4 7 5
6 5 6 7 7 7 6 6 7 7 8 8 7 7 7 5 4 4 6 4 4 4 4 4 4 3 4 5 4 4 5 4 3 3 4 4 4 4 3 3 3 3 3 5 5 5 4 4 4 5 5 6 7 8 7 5 7 4 6 6 7 8
6 6 5 6 7 7 6 5 5 7 8 8 9 7 7 7 6 6 6 5 4 5 3 4 3 5 5 4 5 5 4 4 5 4 5 4 4 4 4 4 4 3 3 3 5 5 5 5 5 4 5 5 5 4 3 5 5 6 8 8 7 8
7 5 6 6 7 6 6 6 7 7 7 7 8 8 7 7 5 7 6 6 5 5 4 4 3 6 4 5 6 6 5 5 5 4 4 5 4 4 4 4 4 4 4 4 5 6 6 6 6 6 6 4 4 3 3 4 6 6 6 9 11 9
7 5 5 6 7 7 6 7 7 8 8 8 8 8 7 8 7 6 6 7 6 6 5 4 4 4 5 4 4 4 5 5 5 5 5 5 4 4 4 5 4 5 4 3 4 4 5 5 4 3 4 5 5 4 4 5 7 7 9 11 9 10
6 5 6 6 6 7 7 7 7 7 8 6 7 6 6 7 7 7 5 6 5 4 5 4 5 4 4 5 5 5 5 6 5 5 4 5 4 5 4 5 5 5 5 4 5 4 4 5 5 5 5 5 5 4 5 5 6 7 9 9 11 10
5 5 5 6 6 7 6 5 6 6 6 6 5 5 5 5 5 6 7 7 6 4 4 4 3 4 3 5 6 6 5 6 5 4 4 4 5 5 4 6 5 5 5 3 5 5 4 5 5 5 5 4 5 4 4 5 5 7 7 7 8 7
4 3 3 4 5 4 5 5 5 6 6 6 7 8 7 6 6 4 5 5 6 4 4 3 4 3 5 4 5 6 6 5 4 4 5 4 5 5 4 5 5 5 5 4 5 6 5 5 4 5 5 4 4 5 5 4 5 6 6 5 5 5
Wind_Direction
139 137 134 135 136 135 144 140 139 136 136 137 132 140 143 134 129 124 119 114 102 97 96 95 98 104 103 104 107 111 111 111 111 113 109 103 89 77 77 73 69 70 70 68 70 68 72 88 113 128 128 141 148 105 120 116 115 115 120 131 140 207
139 139 136 126 121 125 132 134 127 127 130 139 143 136 127 116 118 101 104 102 97 101 102 105 107 110 106 111 111 106 107 106 105 101 100 98 80 73 76 76 72 73 74 72 66 63 49 40 53 128 123 134 108 114 110 115 113 123 130 141 152 204
138 136 126 114 118 123 119 118 114 117 124 129 117 100 100 102 91 98 93 96 99 103 106 107 109 115 111 115 112 113 113 114 111 106 99 92 94 89 81 82 80 77 76 75 68 63 64 65 15 67 106 117 117 119 121 116 121 133 149 165 144 181
138 138 128 121 108 111 129 119 113 105 103 98 90 89 94 103 102 105 107 105 108 108 102 109 127 121 110 99 108 111 115 114 109 102 90 82 76 74 68 64 67 70 70 77 80 64 74 61 62 65 96 119 125 133 131 137 145 149 152 166 156 182
135 137 129 120 120 118 121 122 116 109 107 103 100 100 103 103 114 115 116 114 110 105 101 93 88 87 94 98 89 78 81 79 80 80 92 88 58 39 46 54 51 62 70 83 82 70 84 81 66 85 102 119 122 130 134 141 145 146 145 132 150 191
131 133 133 130 127 128 126 128 126 112 107 100 100 100 102 114 113 114 119 117 107 103 96 94 92 102 100 104 97 90 87 88 85 93 98 104 80 36 26 59 67 77 58 71 82 81 73 114 114 97 108 121 130 130 135 143 138 123 119 117 197 166
136 136 132 126 124 121 133 130 115 114 109 100 108 112 112 123 122 124 119 121 116 110 107 109 108 100 105 106 99 91 90 90 95 96 92 99 80 60 58 69 78 76 82 81 72 65 84 101 134 125 116 122 133 133 136 137 116 113 130 156 194 162
139 141 137 136 126 128 122 118 127 124 118 130 125 123 132 137 125 120 120 115 117 125 131 132 118 110 116 100 103 105 106 102 97 86 89 75 92 58 69 79 83 70 71 55 83 60 89 102 111 118 116 126 129 129 129 115 115 131 158 170 152 151
151 148 139 134 131 124 124 129 123 125 132 138 125 130 136 136 125 117 109 119 132 129 129 129 129 136 125 113 109 110 106 108 99 89 79 60 82 110 94 87 69 78 70 81 89 103 87 85 89 89 113 126 135 135 127 116 133 154 158 111 105 152
162 153 138 135 131 128 131 125 127 136 137 127 133 132 134 128 123 125 118 121 127 132 137 139 140 131 124 115 115 105 105 110 106 96 77 82 90 107 107 82 64 63 65 50 41 24 44 71 78 83 97 123 142 144 132 141 152 149 113 104 118 143
158 149 139 141 135 137 141 139 133 133 123 129 138 133 130 128 132 125 136 139 131 133 132 137 137 130 117 120 113 109 104 100 101 106 120 128 124 120 112 92 73 73 73 44 9 6 32 33 61 73 94 118 127 120 124 133 119 102 101 103 89 77
159 151 150 145 141 141 147 136 124 127 127 131 138 131 137 141 137 140 148 148 138 134 135 133 132 125 127 125 117 111 113 119 119 117 160 147 125 109 109 99 81 73 67 50 31 30 42 48 41 38 53 77 85 88 104 93 88 89 87 92 92 73
156 155 159 151 144 142 138 128 137 137 127 129 135 139 139 147 141 145 149 149 138 134 134 136 133 133 131 125 125 128 131 129 125 139 147 133 120 111 102 98 79 75 67 57 52 37 43 53 46 37 43 46 45 63 62 79 92 89 91 88 75 83
156 161 161 142 137 139 137 135 142 136 129 125 134 133 134 138 143 141 143 137 130 126 127 129 132 119 118 123 131 138 145 143 133 136 131 124 118 119 112 105 104 92 73 61 60 44 55 54 49 50 49 53 60 61 67 79 85 89 98 97 81 83
154 159 153 139 139 137 134 136 140 134 130 129 129 129 128 133 132 126 120 119 121 122 119 122 119 126 118 123 132 144 149 146 132 130 127 125 123 118 117 117 127 110 85 73 71 60 68 70 66 59 54 59 64 68 71 82 95 109 111 94 83 70
143 145 141 138 132 133 134 133 133 134 124 129 128 128 132 133 130 115 112 120 122 120 122 122 121 124 127 137 144 150 148 135 130 118 122 131 133 127 124 114 118 127 121 91 87 68 70 75 70 66 60 63 68 75 82 91 111 121 124 103 85 76
144 141 138 126 124 124 129 130 127 114 121 127 128 126 131 132 132 126 124 133 134 134 135 134 133 135 136 142 141 133 131 133 128 131 140 137 131 144 125 111 94 102 84 116 94 87 74 76 75 69 64 63 64 76 87 99 110 121 119 100 85 71
135 135 135 134 134 133 127 119 113 115 119 119 122 123 128 133 135 138 141 141 144 143 147 142 138 137 131 142 138 130 124 126 131 135 136 130 133 132 108 112 104 90 84 100 100 97 90 83 79 78 71 67 63 66 82 113 127 115 109 106 73 61
134 134 131 131 127 118 109 100 100 108 113 115 111 112 124 127 133 141 151 145 147 150 151 148 145 143 136 135 123 115 120 138 138 139 136 133 137 127 92 93 117 102 71 72 107 104 106 94 86 81 76 72 64 62 63 70 82 89 91 112 90 64
137 134 130 124 123 119 116 117 115 112 109 114 113 111 115 128 133 141 148 147 151 155 158 153 151 144 132 132 125 126 124 141 139 133 130 130 139 152 134 104 111 115 99 82 81 109 112 102 85 79 76 66 61 61 57 55 77 94 89 72 62 59
139 136 134 131 131 129 127 121 113 120 119 125 126 120 120 127 134 148 149 148 155 160 154 148 144 135 131 130 121 131 141 140 143 141 147 166 165 147 129 122 109 91 112 111 96 115 121 112 102 78 73 70 60 51 55 51 49 52 62 68 71 73
138 137 137 138 134 128 132 133 129 132 133 132 137 138 133 137 142 146 149 152 155 154 149 141 132 121 122 131 142 145 157 160 153 140 125 137 150 140 131 131 131 99 57 126 128 157 161 108 57 127 118 90 71 62 61 63 64 54 53 57 67 74
143 138 136 133 132 127 115 111 122 137 139 111 76 115 125 140 140 142 148 151 151 142 137 124 120 124 132 146 156 154 163 158 148 144 141 147 149 152 153 149 154 142 123 77 115 182 190 117 137 131 104 103 69 84 55 64 49 50 65 61 69 81
143 132 129 129 120 115 112 101 94 113 103 105 133 114 105 116 126 131 131 138 121 124 122 119 127 138 146 153 158 163 152 157 150 158 158 156 160 165 157 139 131 146 139 127 131 183 228 202 146 142 110 81 139 117 104 74 62 39 44 52 62 76
138 132 128 128 124 122 113 102 107 96 97 91 84 103 112 97 113 124 115 111 115 108 114 131 142 150 155 163 165 155 163 163 153 159 159 157 166 184 188 155 152 149 168 154 160 153 229 201 167 45 144 119 88 77 184 126 96 45 30 46 47 63
130 130 130 131 134 132 132 134 133 129 130 122 125 137 145 150 141 141 144 112 97 117 130 136 139 149 157 157 165 170 158 150 154 159 168 170 166 160 187 191 188 167 169 188 158 144 140 321 145 101 145 139 163 161 155 145 110 107 49 40 47 65
139 135 134 138 139 130 128 143 150 152 150 152 142 148 117 128 133 128 118 122 128 114 139 143 143 146 148 148 145 147 151 160 165 173 168 151 172 189 195 203 174 164 171 156 137 155 168 152 106 20 359 213 141 112 145 139 133 129 109 50 47 69
139 140 139 140 140 143 141 147 132 128 137 140 145 146 147 136 120 127 120 133 127 120 105 128 142 141 143 137 133 141 153 151 146 162 162 171 176 178 158 211 200 170 145 167 172 161 166 164 166 182 46 77 86 96 84 90 132 145 128 127 106 69
137 134 135 141 140 144 144 146 137 132 123 111 117 123 122 118 125 129 124 127 120 113 94 81 108 141 144 144 144 146 146 142 137 135 131 129 132 152 162 160 166 171 175 164 171 154 146 175 148 163 118 66 85 87 79 60 99 90 134 133 104 117
133 136 141 139 140 142 142 136 133 138 129 121 113 104 110 126 135 141 123 117 111 104 100 88 78 109 125 118 119 122 121 120 123 123 110 128 126 119 133 154 170 183 170 151 136 151 169 168 162 149 143 145 119 108 85 83 72 108 74 49 133 139
132 135 141 142 143 147 147 150 144 143 137 132 127 125 122 118 120 116 118 118 117 102 83 95 100 99 119 115 109 111 118 117 112 109 110 109 115 120 104 98 96 103 121 136 127 119 104 132 140 136 145 156 160 164 161 164 170 162 134 130 116 112
136 142 142 142 141 148 147 143 138 140 139 140 138 140 143 147 151 138 133 128 114 100 95 100 106 118 120 122 120 113 112 108 108 109 99 106 100 102 101 98 88 94 96 89 117 125 138 141 149 145 160 167 160 134 120 144 159 134 135 138 124 125
146 149 146 145 144 147 144 146 144 141 141 143 143 145 144 143 155 144 144 133 135 136 136 111 127 123 135 137 135 125 124 120 108 98 104 92 88 89 104 99 103 98 103 128 146 144 151 168 165 168 180 173 147 139 134 128 116 125 117 131 134 122
150 150 147 143 147 151 156 151 149 148 151 149 149 148 151 149 159 154 151 147 153 158 160 164 156 147 157 130 110 120 118 105 105 104 101 100 92 88 93 97 94 91 79 68 89 103 120 130 122 120 131 143 160 143 139 138 134 130 134 137 141 133
141 151 148 148 149 158 162 159 157 154 150 147 146 146 152 149 147 144 143 139 148 149 147 163 146 151 133 116 119 112 112 107 100 96 97 95 88 82 84 89 82 91 77 64 82 96 101 122 126 134 141 157 149 137 147 149 138 142 148 152 148 151
150 157 152 150 160 164 162 158 148 142 138 134 127 125 124 129 136 145 149 151 157 158 148 135 147 123 122 128 128 112 94 93 93 93 88 96 91 84 85 95 89 85 77 50 80 73 59 83 93 102 116 117 118 129 141 143 137 144 150 150 149 151
117 111 140 148 155 155 148 144 147 138 134 131 139 147 148 145 138 126 135 142 142 142 129 136 135 131 119 101 103 111 108 103 98 100 92 86 89 82 81 81 87 83 77 56 74 58 46 65 68 80 80 85 116 125 130 126 118 124 126 130 137 143